ONEWEB-0006, 44061

Orbit data source: Space-Track

ONEWEB-0006, 44061 is a payload satellite owned by One Web (UK) in LEO that was launched on Wed, 27 Feb 2019 UTC via a SOYUZ-ST-B launch vehicle from the French Guiana (FRGUI). Payload-class satellites include a variety of spacecraft equipped with specific instruments for various scientific and technological missions. These include communications satellites like Starlink; space stations such as the ISS; scientific satellites like the Hubble; Earth observation satellites from companies like Planet Labs, Umbra, and HawkEye 360; GPS; miniature CubeSats for education and research; and military/defense satellites.

Loading next visibility...
Identifier
44061, 2019-010E
Orbit
LEO
Country
Flag of UKUK
Related business
Manufacturer
Airbus/Toulouse
Mission
Operational Commercial Communications
Bus & Motor
ARROW, Unknown motor
Mass
148 kg wet, ~140 kg dry
Launch date (UTC)
2019-02-27 (7 years ago)
Launch vehicle
SOYUZ-ST-B
Launch site
French Guiana (FRGUI)
Object type
Payload
Rocket body
Debris
Shape & HBR
Trap Box + 2 Pan, 6.7 m
Radar Cross Section
3.464 m², Large (>1 m²)

Expand to show TLE details & history
Last TLE update: 7 hours ago

TLE from 7 hours ago
0 ONEWEB-0006
1 44061U 19010E   25299.08644068  .00000160  00000-0  38993-3 0  9991
2 44061  87.8970 305.8908 0001972  99.3540 260.7814 13.15547761320641
Epoch: 2025-10-26T02:04Z
TLE epoch observation values (Epoch: 2025-10-26T02:04:28.474Z)
Latitude
0.00003°
Longitude
-119.93553°
Altitude
1,204.909 km
Speed
7.251 km/s
True Right ascension
20h 23m 33s
True Declination
0° 00' 00"
Sunlit
Object was in daylight at epoch
Visualization orbit readout
Latitude
Unknown
Longitude
Unknown
Altitude
Unknown
Speed
Unknown
Apparent Right ascension
Unknown
Apparent Declination
Unknown
Sunlit
N/A
Visualization observer readout
Local Sidereal Time
04:33:35
Azimuth
Unknown
Elevation
Unknown
Doppler factor
Unknown
Orbital elements
Apogee altitude
1,200.38 km
Perigee altitude
1,197.392 km
Semi-major axis
7,577.023 km
Eccentricity
0.0002
Inclination
87.897°
RAAN
305.8908°
Arg. of periapsis
99.354°
True anomaly
260.7591°
Mean anomaly
260.7814°
Eccentric anomaly
260.77025°
Mean motion
3.29075 °/min
Orbital period
109.4 mins
BSTAR
0.00038993
Loading maneuver chart data...
Computing Atmospheric mass density...
Loading historical data...
Loading historical data...
Loading historical data...
Loading historical data...
Loading historical data...
Loading historical data...
Loading historical data...
Other satellites on launch #10 in the year 2019 (2019-02-27 UTC)

Documentation

Showing up to 5 results
|